MDT,Max TemperatureF,Mean TemperatureF,Min TemperatureF,Max Dew PointF,MeanDew PointF,Min DewpointF,Max Humidity, Mean Humidity, Min Humidity, Max Sea Level PressureIn, Mean Sea Level PressureIn, Min Sea Level PressureIn, Max VisibilityMiles, Mean VisibilityMiles, Min VisibilityMiles, Max Wind SpeedMPH, Mean Wind SpeedMPH, Max Gust SpeedMPH,PrecipitationIn, CloudCover, Events, WindDirDegrees
2013-7-1,98,81,64,57,49,39,64,36,17,30.15,30.09,30.02,15,12,10,14,3,,0.00,0,,296
2013-7-2,96,81,66,55,49,43,52,35,19,30.14,30.07,29.99,15,12,10,28,5,23,0.00,1,,310
2013-7-3,93,78,64,61,52,45,59,41,26,30.11,30.02,29.93,15,11,0,12,3,,0.00,2,,132
2013-7-4,91,80,69,61,56,48,64,48,29,30.06,29.97,29.87,15,11,2,33,9,44,0.00,2,,310
2013-7-5,91,78,64,63,58,52,88,66,28,30.09,29.99,29.82,15,12,8,26,8,34,0.07,3,Thunderstorm,161
2013-7-6,93,78,64,61,57,52,83,63,26,30.06,30.00,29.87,15,11,8,23,10,39,0.01,3,,135
2013-7-7,87,76,64,63,54,52,68,54,29,30.08,30.03,30.00,15,12,4,21,6,26,0.00,3,,145
2013-7-8,91,76,62,57,54,41,77,52,17,30.13,30.08,30.04,15,12,2,13,6,,0.00,2,,110
2013-7-9,96,80,64,55,48,32,68,42,10,30.19,30.13,30.08,15,11,5,10,5,,0.00,0,,145
2013-7-10,98,79,60,54,41,32,55,32,11,30.16,30.07,29.95,15,11,8,13,3,,0.00,0,,140
2013-7-11,87,78,68,59,50,39,73,45,20,30.08,30.00,29.95,15,12,4,22,5,20,0.00,3,,127
2013-7-12,80,71,62,63,59,55,100,70,45,30.13,30.06,30.01,15,11,7,13,6,,0.00,4,Rain,144
2013-7-13,87,76,64,66,57,52,78,58,31,30.12,30.09,30.05,15,11,3,23,7,32,0.00,3,,136
2013-7-14,89,74,60,61,54,39,83,56,17,30.19,30.11,30.03,15,12,7,12,4,,0.00,2,,144
2013-7-15,96,81,66,61,55,43,73,49,16,30.07,30.02,29.91,15,12,10,18,5,26,0.00,2,,217
2013-7-16,91,80,68,63,58,50,83,59,24,30.16,30.06,30.00,15,11,8,23,7,34,0.02,3,Rain,165
2013-7-17,91,78,64,64,60,48,94,66,25,30.20,30.15,30.11,15,12,6,17,4,23,0.02,1,Rain,150
2013-7-18,93,80,66,59,56,37,73,53,24,30.27,30.14,30.05,15,11,7,17,4,29,0.00,1,,162
2013-7-19,96,80,64,59,53,39,73,48,14,30.15,30.08,29.97,15,12,6,13,5,,0.00,0,,169
2013-7-20,96,79,62,54,46,39,55,40,14,30.06,30.00,29.90,15,12,9,12,4,,0.00,1,,146
2013-7-21,96,78,60,57,47,37,59,41,13,30.01,29.96,29.91,15,12,8,16,3,25,0.00,1,,129
2013-7-22,95,78,62,54,47,43,49,37,19,30.07,30.01,29.96,15,12,10,12,5,,0.00,1,,109
2013-7-23,95,78,62,52,46,37,56,35,14,30.13,30.05,29.99,15,12,10,13,5,,0.00,1,,86
2013-7-24,89,78,68,57,50,39,57,40,25,30.11,30.06,30.02,15,12,8,17,6,23,0.00,2,,115
2013-7-25,93,78,64,59,52,43,68,47,17,30.15,30.10,30.06,15,12,10,14,6,,0.00,1,,124
2013-7-26,96,79,62,54,48,37,64,41,13,30.24,30.15,30.07,15,12,10,14,5,,0.00,1,,195
2013-7-27,80,73,66,59,53,48,73,47,32,30.17,30.10,30.02,15,12,10,14,6,20,0.00,3,,138
2013-7-28,80,70,60,57,55,48,82,67,42,30.04,30.02,29.94,15,12,10,28,6,39,0.00,2,Rain,124
2013-7-29,84,74,64,54,52,48,68,56,29,30.18,30.08,30.02,15,12,8,25,8,39,0.00,2,,134
2013-7-30,91,76,60,54,49,43,72,47,18,30.26,30.19,30.15,15,11,5,18,8,,0.00,2,,136
2013-7-31,95,80,66,54,45,36,49,36,13,30.25,30.16,30.05,15,12,9,16,6,,0.00,1,,129